| time (UTC) | temp F | wind direction | speed MPH | gust MPH | rain 1hr in | rain 24hr in | rain mn in | humidity % | barometer mb |
| 20260503013037 | 48 | 45 | 0.0 | 0.0 | 0.00 | 0.07 | 0.07 | 93 | 1009.3 |
| 20260503011533 | 48 | 45 | 0.0 | 0.0 | 0.00 | 0.07 | 0.07 | 93 | 1009.5 |
| 20260503010036 | 48 | 45 | 0.0 | 0.0 | 0.00 | 0.07 | 0.07 | 93 | 1009.5 |
| 20260503004531 | 48 | 45 | 0.0 | 0.0 | 0.00 | 0.07 | 0.07 | 92 | 1009.5 |
| 20260503003031 | 48 | 45 | 0.0 | 0.0 | 0.00 | 0.07 | 0.07 | 92 | 1009.5 |
| 20260503001536 | 48 | 45 | 0.0 | 0.0 | 0.00 | 0.07 | 0.07 | 91 | 1009.4 |
| 20260503000030 | 48 | 45 | 0.0 | 0.0 | 0.00 | 0.07 | 0.07 | 90 | 1009.1 |
| 20260502234537 | 49 | 45 | 0.0 | 0.0 | 0.00 | 0.07 | 0.07 | 90 | 1009.1 |
| 20260502233030 | 49 | 45 | 0.0 | 1.0 | 0.00 | 0.07 | 0.07 | 90 | 1008.9 |
| 20260502231529 | 49 | 140 | 0.0 | 1.0 | 0.00 | 0.07 | 0.07 | 90 | 1008.8 |
| 20260502230034 | 49 | 42 | 0.0 | 0.0 | 0.01 | 0.07 | 0.07 | 90 | 1008.7 |
| 20260502224528 | 50 | 42 | 0.0 | 1.0 | 0.01 | 0.07 | 0.07 | 89 | 1008.8 |
| 20260502223027 | 50 | 4 | 0.0 | 1.0 | 0.01 | 0.07 | 0.07 | 88 | 1008.7 |
| 20260502221527 | 50 | 62 | 0.0 | 1.0 | 0.01 | 0.07 | 0.07 | 86 | 1008.7 |
| 20260502220028 | 51 | 283 | 0.0 | 1.0 | 0.00 | 0.06 | 0.06 | 83 | 1008.7 |
| 20260502214526 | 52 | 340 | 0.0 | 0.0 | 0.00 | 0.06 | 0.06 | 79 | 1008.7 |
| 20260502213025 | 53 | 63 | 0.0 | 1.0 | 0.00 | 0.06 | 0.06 | 77 | 1008.6 |
| 20260502211524 | 55 | 42 | 0.0 | 3.0 | 0.00 | 0.06 | 0.06 | 71 | 1008.5 |
| 20260502210030 | 55 | 239 | 1.0 | 5.0 | 0.00 | 0.06 | 0.06 | 69 | 1008.4 |
| 20260502204528 | 55 | 281 | 1.0 | 4.0 | 0.00 | 0.06 | 0.06 | 68 | 1008.5 |
| 20260502203023 | 55 | 158 | 0.0 | 9.0 | 0.00 | 0.06 | 0.06 | 68 | 1008.5 |
| 20260502201523 | 56 | 149 | 2.0 | 9.0 | 0.00 | 0.06 | 0.06 | 66 | 1008.4 |
| 20260502200023 | 56 | 236 | 0.0 | 6.0 | 0.00 | 0.06 | 0.06 | 67 | 1008.4 |
| 20260502194519 | 57 | 232 | 0.0 | 6.0 | 0.00 | 0.06 | 0.06 | 66 | 1008.6 |
| 20260502193019 | 57 | 162 | 2.0 | 7.0 | 0.00 | 0.06 | 0.06 | 64 | 1008.8 |
| 20260502191517 | 59 | 112 | 2.0 | 8.0 | 0.00 | 0.06 | 0.06 | 63 | 1008.8 |
| 20260502190015 | 57 | 91 | 2.0 | 6.0 | 0.00 | 0.06 | 0.06 | 63 | 1008.9 |
| 20260502184524 | 57 | 250 | 1.0 | 4.0 | 0.00 | 0.06 | 0.06 | 73 | 1009.0 |
| 20260502183024 | 56 | 74 | 1.0 | 4.0 | 0.00 | 0.06 | 0.06 | 78 | 1009.0 |
| 20260502181506 | 55 | 84 | 0.0 | 3.0 | 0.00 | 0.06 | 0.06 | 77 | 1009.2 |
| 20260502163102 | 55 | 127 | 0.0 | 5.0 | 0.00 | 0.06 | 0.06 | 79 | 1010.0 |
| 20260502161623 | 54 | 60 | 0.0 | 5.0 | 0.00 | 0.06 | 0.06 | 79 | 1010.4 |
| 20260502151545 | 50 | 14 | 0.0 | 2.0 | 0.00 | 0.06 | 0.06 | 86 | 1010.4 |
| 20260502123034 | 44 | 310 | 0.0 | 1.0 | 0.03 | 0.04 | 0.04 | 91 | 1011.0 |
| 20260502121535 | 44 | 282 | 0.0 | 1.0 | 0.03 | 0.03 | 0.03 | 90 | 1011.1 |
| 20260502114524 | 44 | 254 | 0.0 | 1.0 | 0.02 | 0.02 | 0.02 | 87 | 1010.9 |
| 20260502113023 | 44 | 312 | 0.0 | 0.0 | 0.01 | 0.01 | 0.01 | 88 | 1010.4 |
| 20260502111522 | 44 | 257 | 0.0 | 0.0 | 0.00 | 0.00 | 0.00 | 90 | 1010.0 |
| 20260502110024 | 43 | 333 | 0.0 | 0.0 | 0.00 | 0.00 | 0.00 | 90 | 1010.1 |
| 20260502104520 | 43 | 49 | 0.0 | 0.0 | 0.00 | 0.00 | 0.00 | 90 | 1009.9 |
| 20260502103020 | 43 | 49 | 0.0 | 1.0 | 0.00 | 0.00 | 0.00 | 89 | 1010.1 |
| 20260502101533 | 43 | 51 | 0.0 | 1.0 | 0.00 | 0.00 | 0.00 | 87 | 1009.9 |
| 20260502091516 | 45 | 82 | 0.0 | 0.0 | 0.00 | 0.00 | 0.00 | 81 | 1010.0 |
| 20260502071507 | 45 | 119 | 0.0 | 0.0 | 0.00 | 0.00 | 0.00 | 77 | 1010.1 |
| 20260502070006 | 45 | 119 | 0.0 | 0.0 | 0.00 | 0.00 | 0.00 | 78 | 1009.9 |
| 20260502064505 | 45 | 119 | 0.0 | 0.0 | 0.00 | 0.00 | 0.00 | 78 | 1009.8 |
| 20260502063010 | 44 | 119 | 0.0 | 0.0 | 0.00 | 0.00 | 0.00 | 78 | 1009.9 |
| 20260502061502 | 43 | 119 | 0.0 | 0.0 | 0.00 | 0.00 | 0.00 | 79 | 1009.8 |
| 20260502060100 | 44 | 119 | 0.0 | 0.0 | 0.00 | 0.00 | 0.00 | 78 | 1009.9 |
| 20260502054558 | 44 | 119 | 0.0 | 0.0 | 0.00 | 0.00 | 0.00 | 77 | 1010.2 |
| 20260502053124 | 44 | 119 | 0.0 | 0.0 | 0.00 | 0.00 | 0.00 | 79 | 1010.2 |
| 20260502051607 | 46 | 119 | 0.0 | 0.0 | 0.00 | 0.00 | 0.00 | 74 | 1010.2 |
| 20260502050057 | 46 | 119 | 0.0 | 1.0 | 0.00 | 0.00 | 0.00 | 72 | 1010.5 |
| 20260502044550 | 45 | 119 | 0.0 | 0.0 | 0.00 | 0.00 | 0.00 | 76 | 1010.5 |
| 20260502043054 | 45 | 119 | 0.0 | 0.0 | 0.00 | 0.00 | 0.00 | 74 | 1010.3 |
| 20260502041604 | 45 | 119 | 0.0 | 1.0 | 0.00 | 0.00 | 0.00 | 69 | 1010.3 |
| 20260502040044 | 44 | 119 | 0.0 | 0.0 | 0.00 | 0.00 | 0.00 | 70 | 1010.3 |
| 20260502034539 | 44 | 119 | 0.0 | 0.0 | 0.00 | 0.01 | 0.00 | 68 | 1010.2 |
| 20260502033050 | 43 | 58 | 0.0 | 0.0 | 0.00 | 0.01 | 0.00 | 73 | 1010.2 |
| 20260502031538 | 43 | 53 | 0.0 | 0.0 | 0.00 | 0.01 | 0.00 | 71 | 1010.1 |
| 20260502030038 | 43 | 53 | 0.0 | 0.0 | 0.00 | 0.01 | 0.00 | 67 | 1010.1 |
| 20260502024537 | 43 | 53 | 0.0 | 0.0 | 0.00 | 0.01 | 0.00 | 70 | 1010.0 |
| 20260502023035 | 44 | 53 | 0.0 | 1.0 | 0.00 | 0.01 | 0.00 | 68 | 1010.0 |
| 20260502021534 | 44 | 53 | 0.0 | 0.0 | 0.00 | 0.01 | 0.00 | 64 | 1009.9 |
| 20260502020037 | 45 | 53 | 0.0 | 0.0 | 0.00 | 0.01 | 0.00 | 63 | 1010.0 |
| 20260502014533 | 47 | 53 | 0.0 | 0.0 | 0.00 | 0.01 | 0.00 | 64 | 1010.0 |